FENGYUN 1C DEB

Satellite information

Favourite Embed

Satellite Type and Status

DEBRISIN ORBIT

Key statistics

Satellite FENGYUN 1C DEB at a glance.

Uptime

9554

Days in orbit

Revolutions

≈ 14.2

Per day

Orbit

SSO

Sun Synchronous Orbit

Inclination

98.8

Latest

Satellite identification and parameters

Extended collection of information and parameters for FENGYUN 1C DEB.

Object identification

Identified? True

Debris? True

Object name: FENGYUN 1C DEB

International designator: 1999-025ALC

Object number (NORAD): 30562

Object ID (CCSDS): 30562

Country: PEOPLES REPUBLIC OF CHINA (PRC)

Current information (Y/N): Y

RCS size: SMALL

Orbital parameters

Period: 101.277 minutes

Inclination: 98.7739 deg

SMA: 7197.253 km

Apoapsis: 862.049 km

Periapsis: 776.187 km

RAAN: 254.6873 deg

Eccentricy: 0.0059649

Argument of periapsis: 12.6429 deg

Mean anomaly: 58.2654 deg

Mean motion: 14.21846256 rev/day

Mean motion (dot): 0.00002079 rev/day2

B* drag term: 0.00094664 1/REarth

Two-line elements (TLE)

Creation date: July 5, 2025, 5:45 p.m.

Reference frame: TEME

Reference center: EARTH

Epoch: July 5, 2025, 2:32 a.m. UTC

TLE line 0: 0 FENGYUN 1C DEB

TLE line 1: 1 30562U 99025ALC 25186.10611829 .00002079 00000-0 94664-3 0 9991

TLE line 2: 2 30562 98.7739 254.6873 0059649 12.6429 58.2654 14.21846256947169

Live tracking on map

Real-time ground track for satellite FENGYUN 1C DEB.

In-orbit conjunctions

A list of the most updated potential collisions computed for object FENGYUN 1C DEB.

Target Orbit TCA Probability of collision Miss distance Type
DMSP 5D-2 F13 DEB SSO 2025-06-28 10:14:08 0.000108719 147.0 (m) DEBRIS
CZ-6A DEB SSO 2025-05-27 15:37:15 0.0002834862 244.0 (m) DEBRIS
CZ-6A DEB LEO 2025-03-05 08:57:37 0.000121787 856.0 (m) DEBRIS
METEOR 1-14 LEO 2024-10-30 01:29:01 0.000132915 210.0 (m) PAYLOAD
METEOR 2-5 DEB LEO 2024-07-20 06:47:07 0.0001326428 44.0 (m) DEBRIS

Associated space launch

Chinese polar orbiting meteorological satellite

FENGYUN 1C DEB was lifted into orbit during the mission ‘Long March 4B | Feng Yun 1C’, on board a Long March 4B space rocket.

The launch took place on May 10, 1999, 1:33 a.m. from Launch Complex 7.

For more information about the launch, click the button.

Launch to space Long March 4B | Feng Yun 1C
Long March 4B | Feng Yun 1C

Agency: N/A

Status: Launch Successful

Launch date: May 10, 1999, 1:33 a.m. UTC

Rocket: Long March 4B

Launch pad: Launch Complex 7

Location: Taiyuan Satellite Launch Center, People's Republic of China

...

Latest news about this satellite

There are no fresh news available about this satellite. Check back as we update our databases every day.


Newsletter sign-up

Weekly statistics, charts and insights to help you stay on top of the space industry.